UAL3107 KSMF-KLAX

Flight info

Callsign UAL3107
Flight time 1h 2m
Altitude 37000
Route FTHIL3 FRA REBRG IRNMN2
Aircraft A320/M-SDE3FGHIRWY/LB1

Departure

Time 2026-04-22 01:48
Airport Sacramento International Airport (KSMF)

Arrival

Time 2026-04-22 02:50
Airport Los Angeles International Airport (KLAX)
Time Latitude Longitude Altitude Speed Heading
2026-04-22 01:18 38.69614 -121.59243 29 ft 0 kts 181°
2026-04-22 01:37 38.69628 -121.59242 29 ft 4 kts 183°
2026-04-22 01:37 38.69655 -121.59239 29 ft 4 kts 191°
2026-04-22 01:37 38.69680 -121.59229 29 ft 4 kts 210°
2026-04-22 01:37 38.69696 -121.59209 29 ft 3 kts 266°
2026-04-22 01:38 38.69697 -121.59199 29 ft 0 kts 270°
2026-04-22 01:42 38.69697 -121.59222 29 ft 11 kts 271°
2026-04-22 01:42 38.69695 -121.59345 29 ft 15 kts 268°
2026-04-22 01:42 38.69698 -121.59484 29 ft 17 kts 271°
2026-04-22 01:43 38.69698 -121.59640 29 ft 18 kts 270°
2026-04-22 01:43 38.69702 -121.59811 29 ft 19 kts 283°
2026-04-22 01:43 38.69814 -121.59862 29 ft 19 kts
2026-04-22 01:43 38.69950 -121.59860 29 ft 21 kts 359°
2026-04-22 01:44 38.70101 -121.59858 29 ft 23 kts
2026-04-22 01:44 38.70267 -121.59855 29 ft 25 kts
2026-04-22 01:44 38.70448 -121.59853 29 ft 27 kts
2026-04-22 01:44 38.70637 -121.59849 29 ft 24 kts
2026-04-22 01:45 38.70721 -121.59932 29 ft 17 kts 275°
2026-04-22 01:45 38.70722 -121.59965 28 ft 0 kts 271°
2026-04-22 01:45 38.70722 -121.59990 28 ft 8 kts 270°
2026-04-22 01:46 38.70703 -121.60097 28 ft 16 kts 218°
2026-04-22 01:46 38.70659 -121.60109 28 ft 0 kts 182°
2026-04-22 01:46 38.70637 -121.60110 29 ft 15 kts 181°
2026-04-22 01:47 38.70285 -121.60115 30 ft 84 kts 181°
2026-04-22 01:47 38.69524 -121.60127 27 ft 132 kts 180°
2026-04-22 01:47 38.68466 -121.60144 69 ft 169 kts 184°
2026-04-22 01:47 38.67223 -121.60126 301 ft 192 kts 166°
2026-04-22 01:48 38.66051 -121.59157 519 ft 220 kts 129°
2026-04-22 01:48 38.65157 -121.57374 820 ft 256 kts 121°
2026-04-22 01:48 38.64329 -121.55332 1467 ft 260 kts 120°
2026-04-22 01:48 38.63491 -121.53268 2455 ft 263 kts 121°
2026-04-22 01:49 38.62598 -121.51204 3430 ft 266 kts 122°
2026-04-22 01:49 38.61653 -121.49158 4372 ft 269 kts 124°
2026-04-22 01:49 38.60661 -121.47112 5284 ft 272 kts 125°
2026-04-22 01:49 38.59635 -121.45068 6184 ft 275 kts 126°
2026-04-22 01:50 38.58581 -121.43004 7050 ft 279 kts 126°
2026-04-22 01:50 38.57511 -121.40924 7893 ft 281 kts 126°
2026-04-22 01:50 38.56427 -121.38823 8679 ft 286 kts 127°
2026-04-22 01:50 38.55329 -121.36698 8949 ft 287 kts 127°
2026-04-22 01:51 38.54231 -121.34566 9093 ft 289 kts 127°
2026-04-22 01:51 38.53119 -121.32410 9927 ft 290 kts 127°
2026-04-22 01:51 38.51986 -121.30214 10403 ft 306 kts 127°
2026-04-22 01:51 38.50784 -121.27895 10608 ft 329 kts 127°
2026-04-22 01:52 38.49495 -121.25408 11061 ft 340 kts 127°
2026-04-22 01:52 38.48183 -121.22868 11733 ft 344 kts 127°
2026-04-22 01:52 38.46865 -121.20309 12466 ft 347 kts 127°
2026-04-22 01:52 38.45530 -121.17724 13161 ft 350 kts 127°
2026-04-22 01:53 38.44180 -121.15119 13867 ft 354 kts 127°
2026-04-22 01:53 38.42816 -121.12492 14495 ft 356 kts 127°
2026-04-22 01:53 38.41443 -121.09849 15116 ft 359 kts 127°
2026-04-22 01:53 38.40061 -121.07185 15731 ft 362 kts 127°
2026-04-22 01:54 38.38668 -121.04498 16342 ft 364 kts 127°
2026-04-22 01:54 38.37264 -121.01790 16956 ft 367 kts 128°
2026-04-22 01:54 38.35849 -120.99067 17584 ft 370 kts 128°
2026-04-22 01:54 38.34419 -120.96326 18219 ft 373 kts 128°
2026-04-22 01:55 38.32978 -120.93567 18810 ft 376 kts 128°
2026-04-22 01:55 38.31527 -120.90790 19414 ft 378 kts 128°
2026-04-22 01:55 38.30068 -120.87999 20026 ft 380 kts 128°
2026-04-22 01:55 38.28599 -120.85190 20627 ft 382 kts 128°
2026-04-22 01:56 38.27120 -120.82370 21232 ft 384 kts 128°
2026-04-22 01:56 38.25634 -120.79535 21780 ft 387 kts 128°
2026-04-22 01:56 38.24135 -120.76682 22336 ft 389 kts 128°
2026-04-22 01:56 38.22628 -120.73813 22868 ft 391 kts 128°
2026-04-22 01:57 38.21111 -120.70926 23399 ft 394 kts 128°
2026-04-22 01:57 38.19587 -120.68027 23852 ft 396 kts 128°
2026-04-22 01:57 38.18049 -120.65102 24199 ft 400 kts 128°
2026-04-22 01:57 38.16492 -120.62141 24511 ft 405 kts 128°
2026-04-22 01:58 38.14911 -120.59138 24751 ft 412 kts 128°
2026-04-22 01:58 38.13323 -120.56130 25033 ft 418 kts 128°
2026-04-22 01:58 38.11696 -120.53052 25340 ft 422 kts 128°
2026-04-22 01:58 38.10049 -120.49938 25643 ft 427 kts 128°
2026-04-22 01:59 38.08382 -120.46792 25943 ft 432 kts 128°
2026-04-22 01:59 38.06696 -120.43609 26235 ft 436 kts 128°
2026-04-22 01:59 38.04988 -120.40401 26520 ft 441 kts 129°
2026-04-22 01:59 38.03235 -120.37195 26830 ft 444 kts 130°
2026-04-22 02:00 38.01443 -120.33982 27072 ft 449 kts 131°
2026-04-22 02:00 37.99620 -120.30745 27340 ft 453 kts 131°
2026-04-22 02:00 37.97776 -120.27477 27624 ft 458 kts 131°
2026-04-22 02:00 37.95851 -120.24252 27906 ft 458 kts 137°
2026-04-22 02:01 37.93603 -120.21420 28200 ft 455 kts 146°
2026-04-22 02:01 37.91067 -120.19061 28475 ft 451 kts 155°
2026-04-22 02:01 37.88366 -120.17026 28679 ft 454 kts 157°
2026-04-22 02:01 37.85625 -120.14983 28844 ft 460 kts 157°
2026-04-22 02:02 37.82847 -120.12923 29103 ft 465 kts 158°
2026-04-22 02:02 37.80047 -120.10848 29416 ft 468 kts 157°
2026-04-22 02:02 37.77254 -120.08769 29981 ft 465 kts 158°
2026-04-22 02:02 37.74474 -120.06697 30385 ft 464 kts 158°
2026-04-22 02:03 37.71693 -120.04625 30760 ft 464 kts 158°
2026-04-22 02:03 37.68907 -120.02552 30960 ft 467 kts 159°
2026-04-22 02:03 37.66100 -120.00470 31317 ft 468 kts 159°
2026-04-22 02:03 37.63295 -119.98391 31694 ft 468 kts 159°
2026-04-22 02:04 37.57688 -119.94240 32495 ft 467 kts 159°
2026-04-22 02:04 37.54922 -119.92195 32911 ft 466 kts 159°
2026-04-22 02:04 37.52121 -119.90126 33245 ft 467 kts 160°
2026-04-22 02:05 37.49319 -119.88059 33635 ft 467 kts 160°
2026-04-22 02:05 37.46520 -119.85992 34094 ft 466 kts 159°
2026-04-22 02:05 37.43731 -119.83928 34471 ft 465 kts 159°
2026-04-22 02:05 37.40942 -119.81869 34866 ft 463 kts 159°
2026-04-22 02:06 37.38165 -119.79825 35217 ft 461 kts 159°
2026-04-22 02:06 37.35394 -119.77790 35518 ft 461 kts 160°
2026-04-22 02:06 37.32624 -119.75759 35821 ft 460 kts 160°
2026-04-22 02:06 37.29863 -119.73735 36134 ft 459 kts 160°
2026-04-22 02:07 37.27103 -119.71716 36406 ft 459 kts 159°
2026-04-22 02:07 37.24341 -119.69698 36682 ft 459 kts 159°
2026-04-22 02:07 37.21581 -119.67677 36959 ft 459 kts 159°
2026-04-22 02:08 37.16023 -119.63621 37071 ft 466 kts 159°
2026-04-22 02:08 37.10199 -119.60391 37069 ft 448 kts 176°
2026-04-22 02:08 37.07176 -119.59718 37070 ft 436 kts 185°
2026-04-22 02:09 37.04185 -119.59634 37076 ft 427 kts 191°
2026-04-22 02:09 36.98237 -119.59761 37033 ft 428 kts 191°
2026-04-22 02:10 36.92247 -119.59867 37073 ft 432 kts 191°
2026-04-22 02:10 36.86275 -119.59968 37081 ft 432 kts 190°
2026-04-22 02:11 36.80255 -119.60071 37087 ft 433 kts 190°
2026-04-22 02:11 36.74230 -119.60169 37089 ft 433 kts 190°
2026-04-22 02:12 36.68205 -119.60272 37089 ft 433 kts 190°
2026-04-22 02:12 36.62180 -119.60377 37089 ft 433 kts 190°
2026-04-22 02:13 36.56149 -119.60478 37050 ft 434 kts 190°
2026-04-22 02:13 36.50111 -119.60584 37066 ft 434 kts 191°
2026-04-22 02:14 36.44061 -119.60688 37077 ft 435 kts 190°
2026-04-22 02:14 36.38007 -119.60796 37096 ft 435 kts 191°
2026-04-22 02:15 36.31993 -119.60903 37055 ft 435 kts 190°
2026-04-22 02:15 36.25891 -119.61004 37065 ft 436 kts 190°
2026-04-22 02:16 36.19825 -119.61111 37070 ft 436 kts 190°
2026-04-22 02:16 36.13792 -119.61218 37026 ft 437 kts 190°
2026-04-22 02:17 36.07722 -119.61313 37058 ft 436 kts 190°
2026-04-22 02:17 36.01652 -119.61415 37071 ft 436 kts 190°
2026-04-22 02:18 35.95767 -119.62338 37075 ft 416 kts 206°
2026-04-22 02:18 35.90236 -119.64442 37065 ft 416 kts 206°
2026-04-22 02:19 35.84701 -119.66526 37080 ft 416 kts 206°
2026-04-22 02:19 35.79169 -119.68600 37088 ft 415 kts 206°
2026-04-22 02:20 35.74535 -119.70337 37097 ft 415 kts 206°
2026-04-22 02:20 35.69001 -119.72399 37072 ft 416 kts 206°
2026-04-22 02:20 35.66215 -119.73372 36766 ft 419 kts 201°
2026-04-22 02:21 35.63349 -119.74074 36512 ft 419 kts 200°
2026-04-22 02:21 35.60489 -119.74765 36261 ft 419 kts 200°
2026-04-22 02:21 35.57631 -119.75460 36009 ft 419 kts 200°
2026-04-22 02:21 35.54776 -119.76156 35761 ft 418 kts 201°
2026-04-22 02:22 35.51921 -119.76851 35523 ft 418 kts 200°
2026-04-22 02:22 35.49067 -119.77546 35288 ft 418 kts 201°
2026-04-22 02:22 35.46211 -119.78241 35038 ft 418 kts 201°
2026-04-22 02:22 35.43356 -119.78934 34761 ft 418 kts 200°
2026-04-22 02:23 35.40494 -119.79630 34527 ft 420 kts 200°
2026-04-22 02:23 35.37667 -119.80314 34295 ft 420 kts 200°
2026-04-22 02:23 35.34733 -119.80911 34043 ft 427 kts 194°
2026-04-22 02:23 35.31726 -119.80938 33781 ft 440 kts 184°
2026-04-22 02:24 35.28663 -119.80284 33509 ft 454 kts 174°
2026-04-22 02:24 35.25660 -119.78904 33244 ft 469 kts 162°
2026-04-22 02:24 35.22832 -119.76790 32981 ft 484 kts 151°
2026-04-22 02:24 35.20149 -119.74277 32657 ft 487 kts 150°
2026-04-22 02:25 35.17458 -119.71755 32397 ft 488 kts 150°
2026-04-22 02:25 35.14761 -119.69230 32136 ft 489 kts 150°
2026-04-22 02:25 35.12057 -119.66705 31883 ft 490 kts 150°
2026-04-22 02:25 35.09386 -119.64215 31634 ft 489 kts 150°
2026-04-22 02:26 35.06687 -119.61696 31387 ft 488 kts 150°
2026-04-22 02:26 35.03997 -119.59188 31094 ft 486 kts 150°
2026-04-22 02:26 35.01308 -119.56688 30855 ft 485 kts 150°
2026-04-22 02:26 34.98629 -119.54203 30618 ft 483 kts 150°
2026-04-22 02:27 34.95962 -119.51734 30271 ft 480 kts 151°
2026-04-22 02:27 34.93308 -119.49280 29491 ft 474 kts 151°
2026-04-22 02:27 34.90731 -119.46885 28849 ft 458 kts 151°
2026-04-22 02:27 34.88210 -119.44576 28435 ft 455 kts 152°
2026-04-22 02:28 34.85642 -119.42284 27906 ft 459 kts 152°
2026-04-22 02:28 34.83063 -119.40005 27469 ft 457 kts 152°
2026-04-22 02:28 34.80501 -119.37743 26979 ft 454 kts 152°
2026-04-22 02:28 34.77951 -119.35485 26488 ft 451 kts 152°
2026-04-22 02:29 34.75428 -119.33242 26015 ft 446 kts 152°
2026-04-22 02:29 34.72942 -119.31024 25550 ft 441 kts 152°
2026-04-22 02:29 34.70475 -119.28845 25100 ft 437 kts 152°
2026-04-22 02:29 34.68019 -119.26699 24633 ft 433 kts 153°
2026-04-22 02:30 34.65581 -119.24580 24194 ft 430 kts 153°
2026-04-22 02:30 34.63162 -119.22488 23659 ft 424 kts 153°
2026-04-22 02:30 34.60765 -119.20429 23065 ft 420 kts 154°
2026-04-22 02:30 34.58382 -119.18389 22536 ft 416 kts 154°
2026-04-22 02:31 34.56026 -119.16367 22021 ft 413 kts 153°
2026-04-22 02:31 34.53699 -119.14343 21491 ft 411 kts 153°
2026-04-22 02:31 34.51397 -119.12311 20974 ft 408 kts 153°
2026-04-22 02:31 34.49120 -119.10282 20441 ft 404 kts 152°
2026-04-22 02:32 34.46864 -119.08271 19959 ft 402 kts 152°
2026-04-22 02:32 34.44621 -119.06274 19452 ft 398 kts 152°
2026-04-22 02:32 34.42380 -119.04300 18957 ft 398 kts 152°
2026-04-22 02:32 34.40138 -119.02335 18608 ft 397 kts 152°
2026-04-22 02:33 34.37907 -119.00380 18236 ft 395 kts 152°
2026-04-22 02:33 34.35753 -118.98301 17834 ft 399 kts 144°
2026-04-22 02:33 34.33778 -118.95955 17447 ft 394 kts 143°
2026-04-22 02:33 34.31898 -118.93659 17052 ft 374 kts 143°
2026-04-22 02:34 34.30098 -118.91491 16650 ft 357 kts 143°
2026-04-22 02:34 34.28370 -118.89408 16266 ft 346 kts 143°
2026-04-22 02:34 34.26681 -118.87365 15896 ft 341 kts 143°
2026-04-22 02:34 34.25013 -118.85342 15527 ft 338 kts 143°
2026-04-22 02:35 34.23348 -118.83344 15163 ft 335 kts 145°
2026-04-22 02:35 34.21594 -118.81534 14803 ft 330 kts 149°
2026-04-22 02:35 34.19824 -118.79783 14453 ft 328 kts 149°
2026-04-22 02:35 34.18056 -118.78052 14102 ft 326 kts 151°
2026-04-22 02:36 34.16247 -118.76417 13728 ft 324 kts 152°
2026-04-22 02:36 34.14434 -118.74818 13340 ft 322 kts 152°
2026-04-22 02:36 34.12628 -118.73302 12884 ft 320 kts 155°
2026-04-22 02:36 34.10726 -118.71863 12369 ft 311 kts 156°
2026-04-22 02:37 34.08936 -118.70570 12239 ft 290 kts 158°
2026-04-22 02:37 34.07258 -118.69372 12112 ft 270 kts 159°
2026-04-22 02:37 34.05675 -118.68241 11823 ft 261 kts 157°
2026-04-22 02:37 34.04252 -118.66862 11449 ft 266 kts 140°
2026-04-22 02:38 34.03205 -118.65035 11043 ft 272 kts 122°
2026-04-22 02:38 34.02627 -118.62853 10607 ft 276 kts 102°
2026-04-22 02:38 34.02413 -118.60556 10153 ft 275 kts 100°
2026-04-22 02:38 34.02208 -118.58277 9703 ft 272 kts 100°
2026-04-22 02:39 34.02000 -118.56033 9231 ft 268 kts 100°
2026-04-22 02:39 34.01788 -118.53794 8612 ft 271 kts 100°
2026-04-22 02:39 34.01577 -118.51576 8265 ft 263 kts 99°
2026-04-22 02:39 34.01369 -118.49376 7790 ft 262 kts 99°
2026-04-22 02:40 34.01167 -118.47234 7611 ft 254 kts 99°
2026-04-22 02:40 34.01138 -118.45108 7478 ft 255 kts 84°
2026-04-22 02:40 34.01477 -118.42983 7127 ft 260 kts 79°
2026-04-22 02:40 34.01849 -118.40838 6781 ft 262 kts 79°
2026-04-22 02:41 34.02223 -118.38678 6440 ft 264 kts 79°
2026-04-22 02:41 34.02599 -118.36508 6089 ft 264 kts 79°
2026-04-22 02:41 34.02919 -118.34365 5985 ft 254 kts 84°
2026-04-22 02:41 34.03150 -118.32303 5987 ft 245 kts 85°
2026-04-22 02:42 34.03350 -118.30305 5974 ft 241 kts 84°
2026-04-22 02:42 34.03547 -118.28326 5572 ft 238 kts 84°
2026-04-22 02:42 34.03751 -118.26345 5084 ft 238 kts 83°
2026-04-22 02:42 34.03963 -118.24352 4727 ft 232 kts 83°
2026-04-22 02:43 34.04168 -118.22463 4436 ft 223 kts 83°
2026-04-22 02:43 34.04371 -118.20630 4082 ft 217 kts 82°
2026-04-22 02:43 34.04537 -118.18822 3646 ft 217 kts 91°
2026-04-22 02:43 34.04072 -118.17120 3603 ft 218 kts 129°
2026-04-22 02:44 34.02888 -118.16060 3603 ft 212 kts 166°
2026-04-22 02:44 34.01481 -118.16030 3598 ft 195 kts 203°
2026-04-22 02:44 34.00440 -118.16870 3594 ft 170 kts 228°
2026-04-22 02:44 33.99676 -118.17817 3586 ft 150 kts 230°
2026-04-22 02:45 33.98999 -118.18702 3589 ft 141 kts 231°
2026-04-22 02:45 33.98344 -118.19572 3604 ft 139 kts 231°
2026-04-22 02:45 33.97698 -118.20424 3632 ft 136 kts 231°
2026-04-22 02:45 33.97061 -118.21267 3610 ft 136 kts 232°
2026-04-22 02:46 33.96428 -118.22117 3456 ft 136 kts 231°
2026-04-22 02:46 33.95797 -118.22961 3292 ft 135 kts 233°
2026-04-22 02:46 33.95280 -118.23892 2987 ft 134 kts 248°
2026-04-22 02:46 33.94978 -118.24949 2575 ft 135 kts 257°
2026-04-22 02:47 33.94831 -118.26081 2094 ft 135 kts 273°
2026-04-22 02:47 33.94801 -118.27202 1942 ft 134 kts 266°
2026-04-22 02:47 33.94717 -118.28312 1766 ft 133 kts 266°
2026-04-22 02:47 33.94620 -118.29413 1601 ft 132 kts 265°
2026-04-22 02:48 33.94516 -118.30508 1429 ft 131 kts 264°
2026-04-22 02:48 33.94408 -118.31614 1246 ft 133 kts 262°
2026-04-22 02:48 33.94297 -118.32718 1068 ft 132 kts 263°
2026-04-22 02:48 33.94180 -118.33827 856 ft 135 kts 263°
2026-04-22 02:49 33.94056 -118.34943 630 ft 134 kts 262°
2026-04-22 02:49 33.93945 -118.36036 435 ft 128 kts 264°
2026-04-22 02:49 33.93845 -118.37105 303 ft 127 kts 264°
2026-04-22 02:49 33.93752 -118.38121 162 ft 117 kts 263°
2026-04-22 02:50 33.93656 -118.39018 93 ft 91 kts 263°
2026-04-22 02:50 33.93619 -118.39437 93 ft 19 kts 264°
2026-04-22 02:50 33.93603 -118.39659 95 ft 39 kts 267°
2026-04-22 02:50 33.93635 -118.39876 96 ft 11 kts 290°
2026-04-22 02:51 33.93663 -118.40012 96 ft 27 kts 270°
2026-04-22 02:51 33.93653 -118.40269 98 ft 28 kts 277°
2026-04-22 02:51 33.93717 -118.40414 97 ft 18 kts 336°
2026-04-22 02:51 33.93789 -118.40429 97 ft 0 kts 353°
2026-04-22 02:52 33.93791 -118.40429 97 ft 2 kts 353°
2026-04-22 02:52 33.93821 -118.40452 96 ft 0 kts 312°
2026-04-22 02:52 33.93825 -118.40467 95 ft 8 kts 288°
2026-04-22 02:52 33.93826 -118.40512 95 ft 1 kts 264°
2026-04-22 02:53 33.93840 -118.40518 96 ft 7 kts 346°
2026-04-22 02:53 33.93901 -118.40519 94 ft 7 kts 45°
2026-04-22 02:53 33.93914 -118.40453 94 ft 9 kts 86°
2026-04-22 02:53 33.93924 -118.40365 94 ft 12 kts 79°
2026-04-22 02:54 33.93986 -118.40306 93 ft 14 kts 356°
2026-04-22 02:54 33.94022 -118.40358 94 ft 0 kts 268°